Forside
METAR-TAF:

METAR-TAF

Lufthavne :

Illinois Valley Regional Airport (Walter A. Duncan Field)

Peru / LaSalle, Illinois, USA

Breddekreds: 41-21-07N, længdekreds: 089-09-11W, højde: 199 m

Aktuelle vejr

Denne rapport blev lavet for 23 minutter siden, kl. 10:15 UTC
Vind 12 kt fra vest
Temperatur 11°C
Fugtighed 94%
Tryk 1014 hPa
Sigt: 6.4 km
Overskyet i en højde af 500 ft
dis

METAR: KVYS 231015Z AUTO 28012KT 4SM BR OVC005 11/10 A2994 RMK AO2 T01050096

Tid: 05:38 (10:38 UTC)


TAF: fraværende

Vejrobservationer og prognoser fra mere end 4000 lufthavne (METAR og TAF).

De gule og røde prikker repræsenterer de meteorologiske stationer.

Flyt musen over at se navnet på stationen.

Så klik over at se vejr observationer og prognoser.

At skifte det kort: Klik på de grønne knapper med et sort kors for at zoome ind; på den grønne knap med en bindestreg for at zoome ud; eller på de grønne pile for tilstødende kort.


METAR-TAF: